Location: Bayshore Village Mobile Home Park
(26.6945°N, 81.8642°W)
Time: 22:43:21
(UTC+00:00)

Cosmos 372 Rocket - Pass Details

Date: 17 June 2021
Orbit: 737 x 768 km, 74.1° (Epoch: 31 July)

Event Time Altitude Azimuth Distance (km) Brightness Sun altitude
Rises 08:10:10 0° 343° (NNW) 3,230 7.6 -26.5°
Reaches altitude 10° 08:12:33 10° 342° (NNW) 2,304 6.8 -26.1°
Maximum altitude 08:17:47 80° 257° (WSW) 782 3.8 -25.3°
Enters shadow 08:18:02 77° 218° (SW) 789 3.8 -25.3°
